EHI
0 0 0 0 0 0 0 0 0 0 0 0 0 0 0 0 0 0 0 0 0 0 0 0 0 0 0 0 0 0 0 0 0 0 0 0 0 0 0 0 0 0 0
0 0 0 0 0 0 0 0 0 0 0 0 0 0 0 0 0 0 0 0 0 0 0 0 0 0 0 0 0 0 0 0 0 0 0 0 0 0 0 0 0 0 0
0 0 0 0 0 0 0 0 0 0 0 0 0 0 0 0 0 0 0 0 0 0 0 0 0 0 0 0 0 0 0 0 0 0 0 0 0 0 0 0 0 0 0
0 0 0 0 0 0 0 0 0 0 0 0 0 0 0 0 0 0 0 0 0 0 0 0 0 0 0 0 0 0 0 0 0 0 0 0 0 1 1 0 0 0 0
0 0 0 0 0 0 0 0 0 0 0 0 0 0 0 0 0 0 0 0 0 0 0 0 0 0 0 0 0 0 0 0 0 0 0 0 0 1 1 0 0 0 0
0 0 0 0 0 0 0 0 0 0 0 0 0 0 0 0 0 0 0 0 0 0 0 0 0 0 0 0 0 0 0 0 0 0 0 0 0 0 0 0 0 0 0
0 0 0 0 0 0 0 0 0 0 0 0 0 0 0 0 0 0 0 0 0 0 0 0 0 0 0 0 0 0 0 0 0 0 0 0 0 0 0 0 0 0 0
0 0 0 0 0 0 0 0 0 0 0 0 0 0 0 0 0 0 0 0 0 0 0 0 0 0 0 0 0 0 0 0 0 0 0 0 0 0 0 0 0 0 0
0 0 0 0 0 0 0 0 0 0 0 0 0 0 0 0 0 0 0 0 0 0 0 0 0 0 0 0 0 0 0 0 0 0 0 0 0 0 0 0 0 0 0
0 0 0 0 0 0 0 0 0 0 0 0 0 0 0 0 0 0 0 0 0 0 0 0 0 0 0 0 0 0 0 0 0 0 0 0 0 0 0 0 0 0 0
0 0 0 0 0 0 0 0 0 0 0 0 0 0 0 0 0 0 0 0 0 0 0 0 0 0 0 0 0 0 0 0 0 0 0 0 0 0 0 0 0 0 0
0 0 0 0 0 0 0 0 0 0 0 0 0 0 0 0 0 0 0 0 0 0 0 0 0 0 0 0 0 0 0 0 0 0 0 0 0 0 0 0 0 0 0
0 0 0 0 0 0 0 0 0 0 0 0 0 0 0 0 0 0 0 0 0 0 0 0 0 0 0 0 0 0 0 0 0 0 0 0 0 0 0 0 0 0 0
0 0 0 0 0 0 0 0 0 0 0 0 0 0 0 0 0 0 0 0 0 0 0 0 0 0 0 0 0 0 0 0 0 0 0 0 0 0 0 0 0 0 0
0 0 0 0 0 0 0 0 0 0 0 0 0 0 0 0 0 0 0 0 0 0 0 0 0 0 0 0 0 0 0 0 0 0 0 0 0 0 0 0 0 0 0
0 0 0 0 0 0 0 0 0 0 0 0 0 0 0 0 0 0 0 0 0 0 0 0 0 0 0 0 0 0 0 0 0 0 0 0 0 0 0 0 0 0 0
0 0 0 0 0 0 0 0 0 0 0 0 0 0 0 0 0 0 0 0 0 0 0 0 0 0 0 0 0 0 0 0 0 0 0 0 0 0 0 0 0 0 0
0 0 0 0 0 0 0 0 0 0 0 0 0 0 0 0 0 0 0 0 0 0 0 0 0 0 0 0 0 0 0 0 0 0 0 0 0 0 0 0 0 0 0
0 0 0 0 0 0 0 0 0 0 0 0 0 0 0 0 0 0 0 0 0 0 0 0 0 0 0 0 0 0 0 0 0 0 0 0 0 0 0 0 0 0 0
0 0 0 0 0 0 0 0 0 0 0 0 0 0 0 0 0 0 0 0 0 0 0 0 0 0 0 0 0 0 0 0 0 0 0 0 0 0 0 0 0 0 0
0 0 0 0 0 0 0 0 0 0 0 0 0 0 0 0 0 0 0 0 0 0 0 0 0 0 0 0 0 0 0 0 0 0 0 0 0 0 0 0 0 0 0
0 0 0 0 0 0 0 0 0 0 0 0 0 0 0 0 0 0 0 0 0 0 0 0 0 0 0 0 0 0 0 0 0 0 0 0 0 0 0 0 0 0 0
0 0 0 0 0 0 0 0 0 0 0 0 0 0 0 0 0 0 0 0 0 0 0 0 0 0 0 0 0 0 0 0 0 0 0 0 0 0 0 0 0 0 0
0 0 0 0 0 0 0 0 0 0 0 0 0 0 0 0 0 0 0 0 0 0 0 0 0 0 0 0 0 0 0 0 0 0 0 0 0 0 0 0 0 0 0
0 0 0 0 0 0 0 0 0 0 0 0 0 0 0 0 0 0 0 0 0 0 0 0 0 0 0 0 0 0 0 0 0 0 0 0 0 0 0 0 0 0 0
0 0 0 0 0 0 0 0 0 0 0 0 0 0 0 0 0 0 0 0 0 0 0 0 0 0 0 0 0 0 0 0 0 0 0 0 0 0 0 0 0 0 0
Wind_Speed
7 7 7 6 5 3 2 1 3 3 3 3 3 4 3 3 3 3 4 4 5 5 4 4 4 3 3 3 3 3 3 3 2 2 3 4 6 5 4 5 5 5 5
8 8 8 7 6 4 2 2 2 3 3 3 4 3 4 3 3 3 3 4 5 5 4 4 3 2 3 3 3 3 3 2 2 2 2 3 4 5 5 5 4 5 5
9 9 9 7 6 5 3 2 2 2 2 3 3 3 2 2 2 3 3 4 4 4 4 5 4 3 3 2 3 3 3 3 2 2 2 2 2 2 4 5 5 4 4
9 8 8 8 7 5 3 2 1 2 2 2 3 4 4 4 4 4 3 4 3 4 4 4 4 3 3 2 3 2 3 3 2 2 2 3 2 2 2 3 3 4 5
10 9 8 7 6 5 3 2 1 2 1 2 2 4 4 4 3 3 4 4 4 4 3 4 3 3 3 3 3 3 3 3 3 2 2 2 2 4 2 2 2 3 3
9 9 8 7 6 5 4 3 2 1 1 2 3 3 4 4 4 4 4 4 3 3 4 4 3 3 3 3 3 3 3 2 3 2 2 2 2 2 2 2 2 2 1
10 10 9 8 7 6 5 4 3 2 2 2 2 3 3 4 4 5 4 4 3 3 4 4 4 3 3 3 3 3 2 2 2 2 2 2 3 2 2 2 1 2 2
9 9 9 8 7 7 6 4 3 3 2 2 2 2 2 2 3 3 4 4 3 4 5 5 5 4 4 3 2 2 1 2 2 2 2 2 2 2 2 2 2 2 2
9 9 8 8 8 7 6 5 4 3 2 2 2 2 2 2 3 3 3 3 4 4 5 4 4 4 3 3 2 2 2 2 2 2 2 2 2 2 2 2 2 2 2
8 9 9 8 8 7 6 6 5 4 3 2 2 1 2 2 2 3 3 4 4 4 4 5 5 4 3 2 2 2 2 2 1 1 2 2 2 1 2 2 2 3 3
9 9 9 8 8 7 7 6 6 5 3 3 2 2 1 1 2 2 2 3 3 4 4 4 4 4 4 3 2 2 2 2 2 2 2 2 1 1 1 2 2 3 3
8 8 9 9 8 8 8 7 6 5 4 3 3 2 1 1 2 1 2 3 3 3 4 4 4 4 4 4 3 2 2 2 2 2 1 1 1 1 1 2 2 2 3
8 9 9 9 9 9 8 7 7 6 5 4 4 3 2 1 1 2 2 2 2 3 3 3 3 4 4 3 3 2 2 2 2 2 2 2 2 1 1 2 2 2 3
10 10 10 10 9 9 9 8 7 7 6 5 5 4 3 2 2 1 2 2 2 2 3 3 3 3 3 3 3 2 2 2 2 2 2 3 3 3 2 2 2 2 3
11 11 11 10 10 10 9 9 8 8 7 6 6 5 4 3 2 2 2 2 2 2 3 3 3 3 3 3 5 3 3 2 2 2 2 3 4 5 4 3 2 2 3
13 12 12 12 12 11 11 10 9 8 8 7 6 5 4 4 3 3 2 2 2 2 2 3 2 2 2 4 4 5 3 2 2 2 2 1 0 1 1 2 3 4 4
13 13 13 13 12 12 11 11 10 9 8 8 7 6 6 5 4 3 3 3 3 2 2 2 2 2 2 1 3 4 4 3 3 3 2 2 2 3 2 1 3 2 2
12 12 12 12 12 11 11 10 10 9 9 8 7 7 6 5 5 4 4 4 3 2 3 3 3 2 1 1 3 5 4 2 2 2 2 2 2 4 5 3 2 2 1
11 11 11 12 12 12 12 11 11 10 9 8 8 7 7 6 5 5 5 4 3 3 3 3 3 3 1 1 3 6 3 2 2 1 2 3 2 4 5 4 3 2 1
8 9 10 11 12 12 12 12 11 11 10 9 8 7 6 6 5 5 4 3 3 4 4 3 3 3 3 1 2 6 3 3 2 1 1 2 3 5 6 4 3 4 4
9 9 11 11 11 12 12 13 12 11 9 8 7 7 6 6 5 4 3 3 3 3 4 4 3 3 3 1 1 4 4 3 3 2 2 1 2 3 4 6 5 5 7
9 10 11 10 10 12 13 13 11 9 8 8 7 7 6 5 4 4 3 3 3 4 4 4 3 2 2 1 1 1 3 6 3 2 2 2 3 1 3 4 5 6 7
9 10 11 11 11 12 12 12 11 10 9 9 8 7 6 5 4 3 3 2 2 3 2 2 2 1 1 1 2 2 2 3 3 1 4 4 2 2 2 1 4 5 3
10 10 12 12 12 12 11 11 10 10 10 9 8 7 7 5 4 2 1 1 1 1 1 1 1 1 1 1 1 1 2 4 4 2 3 3 1 1 2 2 2 2 4
9 11 12 13 13 12 11 10 10 11 11 10 8 7 6 5 4 4 3 1 3 3 2 1 1 2 2 5 7 4 2 2 2 1 0 1 1 2 3 3 4 4 4
10 11 12 12 13 13 12 11 11 11 11 9 9 7 6 5 5 6 6 9 7 9 9 7 5 4 6 6 7 7 7 6 4 1 2 3 3 4 4 4 4 4 5
Wind_Direction
193 183 186 189 194 195 228 306 315 342 337 336 329 329 330 329 336 340 343 328 324 324 318 307 310 302 289 283 275 267 253 244 247 248 242 230 229 232 223 228 231 228 233
194 186 191 192 204 201 226 274 309 337 342 341 325 321 321 319 336 328 332 336 333 327 314 311 303 300 289 280 279 268 265 251 225 239 241 224 209 217 218 215 225 233 222
205 192 194 196 201 208 217 251 301 319 336 333 321 313 305 285 315 338 339 337 332 328 320 319 313 308 295 296 287 276 266 264 239 232 245 247 232 202 200 208 210 218 226
207 198 194 199 203 202 206 234 259 302 329 314 323 330 325 338 345 334 334 329 335 337 329 320 315 316 312 302 286 283 273 269 259 234 245 269 309 264 196 194 202 212 224
202 198 195 197 198 189 196 218 238 276 309 311 324 307 326 339 337 334 339 336 353 347 342 330 322 321 316 314 306 293 278 267 270 261 245 249 255 265 260 215 200 211 218
195 193 185 186 187 184 191 205 226 246 264 282 300 313 329 328 333 342 346 338 348 349 1 338 326 323 323 316 305 290 273 273 273 270 260 253 253 257 259 255 246 247 246
188 186 182 185 186 187 193 203 215 230 234 267 296 318 322 322 331 341 345 337 344 350 354 340 329 330 328 321 307 292 291 273 269 267 270 267 266 270 269 258 262 269 265
188 187 186 186 186 188 190 200 211 224 225 261 297 315 321 319 343 342 333 339 345 352 347 338 333 333 328 320 311 296 299 294 279 267 268 266 259 257 258 261 258 252 247
188 190 187 187 186 188 189 196 205 211 213 246 278 308 332 338 343 333 332 340 344 349 347 339 337 343 338 329 329 320 323 321 305 286 262 260 253 248 247 250 262 264 263
188 189 187 187 186 186 187 189 201 209 206 223 243 294 318 333 328 323 343 339 344 351 347 350 351 357 357 340 335 325 335 312 323 300 279 266 252 246 237 228 231 246 260
190 188 186 186 184 182 186 190 196 204 208 217 221 231 262 299 304 325 340 333 339 347 355 3 360 4 4 1 354 345 352 336 331 302 284 282 289 264 255 244 234 234 242
191 189 185 183 185 188 191 194 197 198 199 209 215 229 248 264 291 325 330 333 344 353 359 8 10 10 5 4 1 1 4 3 346 335 329 328 326 297 280 263 258 252 252
191 188 187 191 191 192 194 196 196 195 190 195 209 220 224 249 280 309 327 326 337 347 357 2 9 10 7 5 2 3 11 17 9 356 347 343 328 294 282 266 266 266 262
195 193 192 195 194 194 195 196 194 191 189 190 206 218 227 232 259 285 305 312 327 337 342 353 1 3 359 353 359 7 15 18 18 360 348 343 338 327 313 276 263 264 262
203 200 198 196 193 194 195 195 193 190 190 194 205 214 219 220 238 252 270 291 309 317 333 338 345 358 351 357 352 351 356 4 5 7 11 15 4 354 335 322 311 287 267
207 203 201 197 196 195 194 192 192 190 192 198 204 204 217 218 231 245 257 274 283 297 313 317 331 341 357 24 348 321 333 341 354 3 360 22 345 26 286 311 328 323 303
207 202 200 198 198 196 193 191 191 186 193 200 201 201 207 214 226 231 239 251 257 270 284 293 303 311 22 18 320 309 307 327 342 346 347 1 3 321 329 191 208 233 257
207 202 200 195 195 191 188 187 184 188 195 199 200 200 206 212 216 224 235 249 260 261 269 284 291 294 322 289 284 288 274 300 321 326 327 325 344 5 341 324 314 325 311
206 199 197 191 189 185 183 184 186 191 196 199 202 198 201 208 215 221 231 242 253 257 257 266 276 275 255 198 261 278 268 269 280 304 331 327 345 30 328 302 313 320 323
195 187 184 186 185 181 180 187 190 192 196 197 200 197 198 206 217 229 240 239 241 252 257 256 264 273 283 113 257 276 263 265 274 276 242 69 345 358 329 305 312 316 333
184 179 178 182 183 176 179 190 192 195 191 187 190 192 195 206 218 230 235 238 240 247 251 254 251 256 279 210 222 277 275 277 278 280 281 68 77 337 327 310 323 344 322
180 179 179 179 176 176 183 191 192 186 177 177 184 188 191 196 199 209 225 234 237 241 245 250 254 251 236 304 121 273 279 301 284 288 304 56 82 351 334 327 355 325 299
185 183 182 176 175 181 189 192 183 175 174 177 181 182 181 181 190 198 205 218 231 253 265 267 276 281 305 132 157 214 234 260 269 328 42 39 26 279 223 59 330 305 299
191 185 182 182 182 183 190 192 175 174 178 180 180 180 180 175 168 165 188 203 246 256 269 289 300 318 336 345 338 229 190 188 206 206 147 164 178 281 344 337 313 335 355
195 191 192 190 186 181 184 183 176 178 183 181 178 179 174 165 152 128 68 56 54 21 353 354 346 344 9 33 16 348 351 358 29 351 138 65 46 24 18 12 13 4 1
200 197 197 194 189 182 180 178 178 183 185 182 178 174 168 161 155 140 111 65 68 69 60 43 27 60 59 57 55 55 52 49 36 38 73 55 41 29 21 10 8 11 9